DW1253 Weather Reports


time (UTC)temp
C
wind
direction
speed
KPH
gust
KPH
rain 1hr
cm
rain 24hr
cm
rain mn
cm
humidity
%
barometer
mb
20260509194859 17 304 4.8 20.9 0.00 0.00 0.00 58 1003.2
20260509194341 17 130 8.0 22.5 0.00 0.00 0.00 60 1003.4
20260509193830 17 161 6.4 16.1 0.00 0.00 0.00 60 1003.6
20260509193411 17 198 3.2 14.5 0.00 0.00 0.00 64 1003.7
20260509192832 17 148 6.4 19.3 0.00 0.00 0.00 60 1003.7
20260509192354 18 238 6.4 12.9 0.00 0.00 0.00 61 1004.0
20260509191842 17 234 3.2 22.5 0.00 0.00 0.00 65 1004.1
20260509191351 17 317 9.7 22.5 0.00 0.00 0.00 64 1004.0
20260509190847 16 116 6.4 17.7 0.00 0.00 0.00 62 1004.1
20260509190330 16 140 6.4 17.7 0.00 0.00 0.00 62 1004.1
20260509185856 17 149 4.8 16.1 0.00 0.00 0.00 59 1004.1
20260509185354 17 262 6.4 19.3 0.00 0.00 0.00 61 1004.0
20260509184840 17 180 8.0 19.3 0.00 0.00 0.00 63 1003.9
20260509184331 17 191 6.4 17.7 0.00 0.00 0.00 59 1003.9
20260509183834 17 274 9.7 17.7 0.00 0.00 0.00 59 1004.0
20260509183351 17 205 9.7 16.1 0.00 0.00 0.00 64 1003.9
20260509182849 17 65 4.8 22.5 0.00 0.00 0.00 59 1004.0
20260509182346 17 125 6.4 22.5 0.00 0.00 0.00 62 1004.0
20260509181830 17 251 6.4 16.1 0.00 0.00 0.00 60 1004.0
20260509181332 16 79 3.2 16.1 0.00 0.00 0.00 67 1004.0
20260509180845 16 200 4.8 16.1 0.00 0.00 0.00 66 1004.1
20260509180343 16 224 6.4 14.5 0.00 0.00 0.00 65 1004.1
20260509175844 16 212 4.8 16.1 0.00 0.00 0.00 63 1004.2
20260509175340 17 221 8.0 16.1 0.00 0.00 0.00 60 1004.2
20260509174836 17 218 8.0 22.5 0.00 0.00 0.00 62 1004.1
20260509174334 17 179 6.4 16.1 0.00 0.00 0.00 68 1004.3
20260509173854 16 298 6.4 17.7 0.00 0.00 0.00 70 1004.4
20260509173346 15 231 6.4 17.7 0.00 0.00 0.00 69 1004.4
20260509172907 15 237 6.4 22.5 0.00 0.00 0.00 70 1004.6
20260509172352 16 260 9.7 22.5 0.00 0.00 0.00 67 1004.6
20260509171832 16 274 6.4 17.7 0.00 0.00 0.00 69 1004.5
20260509171332 16 235 4.8 16.1 0.00 0.00 0.00 66 1004.4
20260509170841 16 254 6.4 16.1 0.00 0.00 0.00 68 1004.6
20260509170359 15 213 6.4 17.7 0.00 0.00 0.00 72 1004.7
20260509165834 15 135 9.7 17.7 0.00 0.00 0.00 69 1004.8
20260509165344 16 213 6.4 14.5 0.00 0.00 0.00 69 1004.7
20260509164850 15 355 4.8 16.1 0.00 0.00 0.00 70 1004.7
20260509164332 15 240 8.0 17.7 0.00 0.00 0.00 70 1004.8
20260509163831 15 163 4.8 17.7 0.00 0.00 0.00 71 1004.7
20260509163346 15 216 4.8 17.7 0.00 0.00 0.00 73 1004.7
20260509162840 15 227 9.7 16.1 0.00 0.00 0.00 72 1004.8
20260509162432 15 43 4.8 19.3 0.00 0.00 0.00 70 1005.0
20260509161839 15 200 8.0 19.3 0.00 0.00 0.00 74 1004.9
20260509161350 15 246 6.4 14.5 0.00 0.00 0.00 73 1005.0
20260509160857 14 258 4.8 16.1 0.00 0.00 0.00 76 1005.1
20260509160416 14 223 11.3 16.1 0.00 0.00 0.00 74 1005.2
20260509155841 13 265 8.0 16.1 0.00 0.00 0.00 77 1005.1
20260509155345 13 244 8.0 16.1 0.00 0.00 0.00 76 1005.2
20260509154832 13 243 4.8 17.7 0.00 0.00 0.00 77 1005.3
20260509154350 13 252 8.0 17.7 0.00 0.00 0.00 76 1005.4
20260509153857 13 244 8.0 14.5 0.00 0.00 0.00 77 1005.3
20260509153406 13 268 6.4 16.1 0.00 0.00 0.00 78 1005.5
20260509152839 13 242 6.4 16.1 0.00 0.00 0.00 79 1005.4
20260509152337 13 246 8.0 16.1 0.00 0.00 0.00 79 1005.3
20260509151839 13 183 1.6 14.5 0.00 0.00 0.00 79 1005.3
20260509151334 13 190 3.2 17.7 0.00 0.00 0.00 80 1005.3
20260509150856 13 230 4.8 17.7 0.00 0.00 0.00 79 1005.2
20260509150336 13 180 3.2 11.3 0.00 0.00 0.00 81 1005.3
20260509145838 12 238 4.8 9.7 0.00 0.00 0.00 81 1005.5
20260509145414 12 223 3.2 8.0 0.00 0.00 0.00 81 1005.4
20260509144849 12 214 3.2 8.0 0.00 0.00 0.00 82 1005.5
20260509144342 12 242 4.8 12.9 0.00 0.00 0.00 82 1005.4
20260509143844 12 219 3.2 12.9 0.00 0.00 0.00 82 1005.4
20260509143406 12 20 3.2 16.1 0.00 0.00 0.00 82 1005.5
20260509142844 12 243 4.8 16.1 0.00 0.00 0.00 82 1005.5
20260509142346 12 135 3.2 12.9 0.00 0.00 0.00 83 1005.4
20260509141849 12 159 4.8 12.9 0.00 0.00 0.00 83 1005.4
20260509141352 12 216 3.2 8.0 0.00 0.00 0.00 83 1005.5
20260509140837 12 239 1.6 12.9 0.00 0.00 0.00 83 1005.5
20260509140352 12 9 3.2 12.9 0.00 0.00 0.00 82 1005.6
20260509135852 12 249 4.8 11.3 0.00 0.00 0.00 82 1005.6
20260509135350 12 145 6.4 22.5 0.00 0.00 0.00 83 1005.6
20260509134853 12 245 3.2 22.5 0.00 0.00 0.00 85 1005.6
20260509134407 11 161 3.2 12.9 0.00 0.00 0.00 85 1005.6
20260509133845 11 212 1.6 12.9 0.00 0.00 0.00 83 1005.6
20260509133351 12 154 4.8 11.3 0.00 0.00 0.00 84 1005.7
20260509132856 11 237 3.2 12.9 0.00 0.00 0.00 84 1005.7
20260509132344 12 159 3.2 14.5 0.00 0.00 0.00 85 1005.7
20260509131837 11 198 4.8 14.5 0.00 0.00 0.00 86 1005.8
20260509131343 11 178 6.4 14.5 0.00 0.00 0.00 88 1005.8
20260509130859 11 223 6.4 14.5 0.00 0.00 0.00 88 1006.0
20260509130336 11 145 3.2 11.3 0.00 0.00 0.00 89 1006.1
20260509125403 10 254 6.4 12.9 0.00 0.03 0.00 89 1006.1
20260509124846 10 259 1.6 8.0 0.00 0.03 0.00 90 1006.0
20260509124411 10 269 3.2 8.0 0.00 0.03 0.00 90 1006.1
20260509123851 10 274 1.6 8.0 0.00 0.03 0.00 90 1006.2
20260508234416 9 222 0.0 3.2 0.00 0.23 0.23 53 1008.5
20260508233854 10 222 0.0 3.2 0.00 0.23 0.23 56 1008.5
20260508233344 10 222 0.0 6.4 0.00 0.23 0.23 54 1008.5
20260508232843 10 182 3.2 6.4 0.00 0.23 0.23 56 1008.5
20260508232346 10 223 1.6 6.4 0.00 0.23 0.23 55 1008.4
20260508231853 10 229 3.2 6.4 0.00 0.23 0.23 58 1008.5
20260508231340 10 185 1.6 6.4 0.00 0.23 0.23 53 1008.4
20260508230834 10 178 1.6 8.0 0.00 0.23 0.23 52 1008.4
20260508230331 10 248 4.8 11.3 0.00 0.23 0.23 48 1008.4
20260508225844 10 211 4.8 11.3 0.00 0.23 0.23 49 1008.4
20260508225340 10 329 4.8 6.4 0.00 0.23 0.23 46 1008.4
20260508224840 10 172 1.6 6.4 0.00 0.23 0.23 49 1008.4
20260508224340 11 240 3.2 6.4 0.00 0.23 0.23 48 1008.5
20260508223836 11 194 3.2 11.3 0.00 0.23 0.23 47 1008.6
20260508223352 11 232 4.8 14.5 0.00 0.23 0.23 44 1008.6
20260508222843 11 207 3.2 17.7 0.00 0.23 0.23 47 1008.6
20260508222335 11 234 6.4 17.7 0.00 0.23 0.23 43 1008.5
20260508221837 11 271 3.2 16.1 0.00 0.23 0.23 44 1008.5
20260508221339 11 270 3.2 12.9 0.00 0.23 0.23 45 1008.4
20260508220857 11 223 6.4 12.9 0.00 0.23 0.23 41 1008.4
20260508220347 11 236 6.4 14.5 0.00 0.23 0.23 42 1008.4
20260508215834 11 238 6.4 16.1 0.00 0.23 0.23 42 1008.4
20260508215407 12 216 9.7 16.1 0.00 0.23 0.23 40 1008.5
20260508214842 12 13 1.6 14.5 0.00 0.23 0.23 45 1008.4
20260508214338 11 215 3.2 14.5 0.00 0.23 0.23 42 1008.4
20260508213844 12 289 4.8 12.9 0.00 0.23 0.23 40 1008.4
20260508213350 12 219 6.4 12.9 0.00 0.23 0.23 44 1008.4
20260508212906 12 209 3.2 12.9 0.00 0.23 0.23 44 1008.5
20260508212349 12 299 1.6 14.5 0.00 0.23 0.23 39 1008.4
20260508211911 12 253 6.4 14.5 0.00 0.23 0.23 39 1008.4
20260508211345 12 242 3.2 8.0 0.00 0.23 0.23 41 1008.4
20260508210833 12 63 3.2 8.0 0.00 0.23 0.23 36 1008.4
20260508210336 12 136 1.6 11.3 0.00 0.23 0.23 39 1008.5
20260508205848 12 194 3.2 11.3 0.00 0.23 0.23 39 1008.5
20260508205348 12 203 3.2 12.9 0.00 0.23 0.23 38 1008.6
20260508204840 12 237 3.2 12.9 0.00 0.23 0.23 41 1008.6
20260508204340 12 56 3.2 6.4 0.00 0.23 0.23 40 1008.6
20260508203835 12 22 1.6 9.7 0.00 0.23 0.23 39 1008.6
20260508203358 12 288 4.8 9.7 0.00 0.23 0.23 39 1008.6
20260508202853 12 178 3.2 17.7 0.00 0.23 0.23 42 1008.7
20260508202344 12 311 8.0 17.7 0.00 0.23 0.23 36 1008.6
20260508201844 12 227 4.8 19.3 0.00 0.23 0.23 43 1008.6
20260508201338 12 240 9.7 19.3 0.00 0.23 0.23 42 1008.7
20260508200358 12 183 4.8 17.7 0.00 0.23 0.23 41 1008.9
20260508195847 12 209 4.8 16.1 0.00 0.23 0.23 38 1008.8
20260508195345 12 189 3.2 11.3 0.00 0.23 0.23 42 1008.9